sat.trackr.live / text

‹ back to catalog

STARLINK-5714

NORAD 55614 · 2023-020AX

PAYLOAD ACTIVE UNKNOWN

§ Identity

Operator
Country
US
Launch date
2023-02-12
Launch site
AFETR
Launch vehicle
Mass (kg)
RCS (m²)

Purposes: comms

External: N2YO · Heavens-Above · Gunter

§ Orbital elements

Epoch: 2026-09-20T15:11:21.132672Z

Period
94.27 min
Inclination
43.0032°
Eccentricity
0.0001499
Mean motion
15.27574156 rev/d
Perigee alt
482.0 km
Apogee alt
484.1 km
Semi-major
6,861.2 km
B*
-4.6291e-6
RAAN
318.5203°
Arg perigee
269.1831°
Mean anomaly
90.8849°
Rev number
19,902

§ Raw data

STARLINK-57141 55614U 23020AX  26263.63288348 -.00000390  00000+0 -46291-5 0  99992 55614  43.0032 318.5203 0001499 269.1831  90.8849 15.27574156199022

JSON: /api/v1/satellites/55614 · /tle

For live sub-satellite position, see the globe view (requires WebGL).

§ Visibility from observer

Set your observer location to see the next 7 days of passes ≥ 10°. The values pass through the URL so the page stays shareable.

No JS? Fill the form by hand. The geolocation button needs JavaScript.